Wind_Gust
13 12 12 11 11 11 10 10 11 11 10 11 12 12 12 13 12 14 14 13 14 15 16 16 16 17 17 17 18 18 16 25 24 20 22 16 13 11 8 6 10 11 10 19 21 22 22 22 22 19 21 20 21 23 17 20 17 19 23 22 23 20 22 12 17 15 16 14 15 12 11 12 15 14 13 13 16 12 11 15 14 14 19 19 19 28 29 28
12 12 12 12 12 12 11 11 11 11 11 11 12 12 13 13 14 14 15 15 16 16 17 17 18 17 18 17 18 17 21 25 25 22 24 16 13 8 7 4 12 16 16 24 25 25 23 23 22 22 22 23 17 21 17 22 20 23 22 24 23 22 21 14 17 14 14 18 12 12 11 12 13 13 15 21 14 18 18 15 15 17 19 21 18 25 28 27
12 12 12 11 12 12 12 12 12 12 12 11 12 13 13 14 14 15 15 15 16 16 17 18 18 18 18 18 17 13 23 26 23 25 17 14 14 10 9 6 13 17 26 24 24 23 21 20 21 23 22 21 20 19 19 20 21 23 23 23 24 20 14 16 10 15 14 14 13 14 12 14 12 13 12 18 15 12 18 20 19 22 19 21 22 23 27 25
12 13 12 12 12 12 12 12 12 12 12 13 13 13 13 14 14 15 15 15 15 16 17 18 18 18 19 19 16 22 23 23 25 20 22 13 13 12 12 11 15 21 26 21 21 23 18 17 19 23 20 24 19 19 21 21 23 19 27 26 18 21 18 13 10 9 12 14 15 15 14 18 12 13 15 13 19 20 19 18 17 23 25 25 27 25 26 26
12 13 13 13 12 12 12 12 12 13 13 13 13 14 14 15 15 15 15 16 16 16 17 17 18 19 20 19 17 23 20 23 21 22 19 12 14 16 14 12 16 25 24 19 20 22 17 19 20 22 22 23 17 18 22 19 21 18 23 22 23 14 18 12 11 12 14 13 17 14 18 17 16 17 17 16 19 16 17 12 16 22 27 28 27 26 25 25
14 13 14 13 13 13 13 13 13 13 13 14 14 14 15 15 15 16 16 17 17 17 17 17 18 19 20 19 25 21 20 12 18 17 7 10 12 15 14 12 17 23 22 18 21 18 19 20 22 23 23 22 18 23 20 22 19 26 19 21 19 15 20 14 11 10 12 17 16 15 15 16 17 17 17 14 17 18 10 12 12 23 29 27 26 26 27 27
13 14 14 14 14 13 13 14 13 14 14 15 15 15 16 16 16 16 16 16 17 17 17 17 18 20 19 21 29 20 24 28 14 16 13 13 16 17 14 15 17 21 20 20 21 22 21 20 23 20 20 20 17 24 17 20 19 24 26 14 18 16 19 16 17 13 16 16 18 17 16 19 17 21 10 15 12 12 8 14 12 28 30 27 26 23 27 27
13 14 14 15 15 14 13 14 15 14 14 15 15 16 16 17 17 17 16 17 17 17 18 17 18 19 18 24 20 23 25 19 19 16 16 17 20 20 18 23 24 21 21 22 20 21 19 22 23 18 21 21 17 22 15 19 21 25 29 17 13 13 16 16 17 17 16 16 19 18 19 18 18 21 16 18 16 10 11 13 14 22 28 23 24 23 24 24
14 14 14 15 16 15 14 15 15 15 15 15 16 16 17 17 18 17 17 17 18 18 18 18 18 18 15 21 21 23 17 20 16 20 24 23 23 24 26 27 25 21 22 20 19 18 18 20 21 19 16 21 12 20 17 19 26 26 21 19 17 17 15 15 17 17 17 18 16 18 19 17 20 17 21 19 18 12 9 16 18 19 24 25 22 21 22 23
15 15 15 15 16 16 15 15 16 16 16 16 17 17 17 18 18 18 18 18 18 19 18 18 18 17 22 20 21 25 17 12 17 19 19 21 23 25 26 20 24 21 20 18 17 17 21 16 20 14 16 20 11 19 17 22 20 12 16 20 22 19 18 16 18 17 16 18 14 20 18 18 17 16 25 22 11 10 14 21 22 18 22 25 20 20 19 22
15 15 15 16 16 16 16 16 17 17 17 17 17 18 19 18 19 19 19 19 19 19 19 18 17 16 21 18 22 18 11 12 14 17 17 19 23 26 23 19 19 20 16 16 16 16 17 13 13 11 14 23 15 19 21 22 19 13 14 14 18 19 20 19 18 18 17 22 20 21 22 19 20 20 26 17 11 12 16 26 24 21 22 21 20 20 18 20
15 16 15 16 16 17 17 17 17 18 18 18 18 18 19 19 20 21 22 21 21 20 19 17 14 22 20 22 23 18 14 12 14 17 19 21 24 25 18 17 17 14 15 15 15 15 13 13 14 20 19 12 21 13 23 19 17 15 15 22 21 22 29 22 23 20 18 20 13 13 18 21 23 26 26 16 14 13 15 17 20 20 21 20 20 22 21 22
15 16 16 16 16 17 18 18 18 19 19 19 19 19 19 20 21 22 21 20 17 17 16 15 15 21 18 22 23 13 11 14 14 14 18 22 20 15 17 16 17 13 11 12 14 15 11 13 16 21 17 20 14 19 17 14 15 16 17 21 21 22 26 24 22 18 16 17 9 10 25 24 28 27 29 15 17 15 16 18 20 20 20 21 20 21 21 19
15 15 16 16 17 18 19 19 19 20 20 20 19 19 19 21 22 21 19 18 17 15 12 13 21 20 19 22 12 11 11 12 13 17 20 20 19 19 14 15 13 14 9 11 8 10 13 15 15 20 13 20 16 16 19 15 16 24 19 22 24 22 29 23 20 16 20 18 16 17 26 23 27 33 28 18 16 18 18 21 22 24 21 21 20 20 21 21
15 15 15 16 17 18 19 20 20 21 21 21 21 20 20 21 21 19 17 15 13 10 13 12 21 17 19 20 17 14 10 9 17 19 20 22 21 20 18 16 16 14 13 11 12 11 12 12 16 20 22 19 17 15 22 22 20 22 23 24 23 26 21 21 17 16 23 25 18 19 26 30 22 29 22 16 19 18 23 22 23 25 22 21 22 22 23 22
14 15 15 16 16 18 19 20 21 21 21 22 21 20 22 20 18 17 12 12 8 12 20 18 19 22 21 25 15 14 16 20 23 21 20 20 21 20 19 18 15 15 13 14 10 12 13 16 22 21 19 18 21 22 21 23 24 24 24 16 24 23 20 19 22 16 17 9 16 22 24 23 25 22 20 18 20 19 22 30 21 23 24 22 22 23 23 23
15 15 16 16 16 18 19 20 21 21 21 21 21 21 19 17 12 12 8 10 15 19 20 17 13 17 16 19 16 19 20 21 15 24 22 22 19 18 21 18 20 18 16 13 14 13 16 20 19 21 21 21 21 24 23 23 22 24 23 23 16 20 17 19 24 16 15 16 19 22 28 23 25 18 20 19 22 23 23 26 27 25 22 22 21 22 23 21
15 15 16 16 17 17 18 20 21 21 22 20 19 23 28 12 12 10 10 16 18 20 19 17 17 17 34 20 19 21 20 18 18 22 21 23 20 18 20 23 17 18 18 18 16 20 20 24 23 21 20 22 24 25 27 24 26 20 19 22 20 19 16 17 13 23 14 17 19 14 21 23 27 14 15 20 20 22 25 23 28 25 23 22 20 21 21 21
15 15 16 16 17 18 18 19 21 21 20 18 27 24 19 12 18 20 20 18 21 16 19 24 20 22 18 26 12 18 19 19 15 19 22 23 24 21 21 19 18 21 22 22 23 22 24 22 21 22 25 26 28 27 26 24 16 17 22 23 22 20 24 28 19 21 14 14 19 21 23 23 25 27 16 17 21 22 21 19 18 25 27 26 26 21 19 20
15 16 16 17 17 18 19 19 21 22 17 21 25 17 17 16 18 17 22 21 29 23 22 15 27 15 12 15 18 16 19 16 20 18 19 22 26 24 24 21 23 22 22 24 25 23 21 24 26 26 26 24 23 24 24 24 13 15 17 13 18 18 20 12 12 11 11 16 20 19 20 22 22 25 24 20 21 23 23 20 21 25 29 30 24 20 20 18
17 16 16 17 18 18 19 19 19 18 14 26 24 19 17 18 19 14 13 22 28 26 23 19 19 19 16 11 16 18 25 21 19 20 19 22 23 24 28 25 26 26 25 20 20 19 21 24 25 23 23 20 20 21 20 17 12 18 19 19 22 21 22 22 20 14 13 14 17 18 22 24 24 23 23 18 19 24 26 25 24 26 25 23 22 22 20 18
17 17 17 17 18 19 20 19 18 17 20 24 21 21 17 14 16 14 18 23 19 25 24 22 17 21 14 15 10 11 13 23 22 20 22 24 27 32 26 27 27 27 23 23 20 20 23 27 23 21 23 20 13 13 14 14 15 18 23 22 24 23 26 16 14 12 14 15 20 19 22 23 23 23 24 25 20 24 27 26 23 29 27 29 28 24 24 20
17 17 18 18 19 20 20 21 18 18 25 19 20 20 14 13 11 13 15 24 31 26 24 22 22 21 20 18 19 15 18 21 26 25 30 25 26 31 26 29 26 25 26 24 24 21 23 25 25 22 21 13 14 13 15 15 17 20 23 25 25 24 28 25 19 14 15 19 18 18 19 21 21 21 25 26 24 23 25 28 28 25 25 31 33 25 25 25
17 17 18 18 19 20 22 19 20 20 22 21 18 18 14 12 14 14 19 21 19 13 20 16 18 18 22 23 28 24 25 28 23 26 26 30 28 24 27 27 25 27 27 26 24 24 22 13 20 24 14 17 18 17 17 19 22 22 23 24 25 23 24 23 14 17 12 17 17 21 23 25 24 27 28 26 25 23 24 27 29 29 26 26 26 28 31 27
16 17 17 18 19 22 20 23 18 16 11 16 21 12 9 11 13 14 18 20 25 21 15 13 13 17 14 15 16 30 25 27 25 22 32 28 28 26 26 26 29 28 23 24 24 27 25 17 11 14 18 20 20 21 22 20 23 22 22 24 22 21 25 14 17 21 23 26 26 23 29 30 25 30 32 28 31 30 27 27 29 30 29 27 28 24 27 29
16 17 17 18 20 21 24 19 12 10 14 16 14 13 9 12 11 14 18 19 18 29 22 21 22 22 17 21 18 24 19 34 26 28 28 29 25 26 24 28 30 26 25 22 27 27 25 20 20 18 19 21 23 23 20 22 24 23 24 23 24 22 20 20 23 21 23 27 22 30 27 27 22 27 29 29 27 29 27 27 28 29 29 29 29 27 28 31
16 16 16 17 17 20 22 10 19 16 19 16 11 9 11 13 10 12 18 19 20 31 23 26 23 21 18 18 23 20 22 31 27 26 27 29 30 23 26 25 27 25 21 23 25 30 25 14 16 18 20 22 22 26 23 22 26 28 16 14 14 18 20 21 22 24 25 23 15 15 24 27 30 20 14 18 24 24 25 28 29 30 28 28 28 28 27 29
16 16 16 16 17 14 19 27 21 17 14 13 10 9 12 12 10 12 18 15 24 23 24 26 13 18 15 18 19 30 20 20 30 29 23 26 27 25 28 22 24 23 19 20 26 17 22 20 16 19 20 24 25 21 19 24 28 24 12 11 16 18 19 20 23 25 25 24 28 26 24 33 31 23 18 20 24 23 25 25 25 27 27 26 28 30 28 26
16 16 15 16 18 21 24 21 18 20 15 10 10 12 12 10 14 18 17 15 26 23 21 18 16 19 14 17 22 24 13 21 21 27 27 24 28 22 31 26 21 21 20 22 27 21 22 21 21 20 21 24 18 18 15 19 22 23 12 13 16 16 19 20 24 26 23 25 27 24 23 32 27 22 23 21 22 22 25 26 21 20 24 24 29 30 30 28
17 15 15 15 21 23 23 22 23 19 16 11 13 13 12 14 17 17 16 14 22 19 21 19 23 21 18 22 22 22 21 19 13 26 29 32 29 26 24 18 26 24 26 23 28 23 18 12 13 21 26 21 20 21 19 18 21 15 12 18 23 24 23 21 24 26 23 29 28 26 26 27 30 20 19 21 24 19 16 13 15 16 18 20 22 24 26 32
17 16 15 14 20 18 18 21 15 15 15 12 14 15 15 19 21 18 13 15 19 25 16 20 24 16 22 21 25 26 22 20 20 23 27 26 29 26 22 21 24 28 27 27 28 31 17 18 20 24 20 22 21 24 25 19 19 18 23 23 23 25 22 22 23 20 24 28 25 27 30 22 30 23 17 21 19 15 16 13 14 20 18 20 23 25 25 21
18 17 16 19 22 23 22 12 15 10 9 11 15 17 21 18 24 20 16 18 21 22 18 22 15 17 15 13 18 32 28 23 20 30 29 33 28 34 33 27 31 32 33 28 30 26 25 24 18 19 20 25 21 22 22 20 21 23 22 25 26 23 21 25 25 25 27 27 22 21 20 25 27 26 19 13 13 13 14 17 15 15 20 23 24 25 26 22
15 16 21 25 20 23 27 26 19 13 13 14 17 20 22 17 18 23 16 20 17 13 19 12 14 14 14 14 18 22 22 24 23 24 25 30 29 29 28 32 25 31 26 25 24 27 26 21 23 22 21 25 22 28 26 26 28 26 28 26 27 27 23 19 23 22 26 25 21 17 11 25 18 16 25 19 20 15 14 16 15 16 19 24 20 21 23 19
17 22 27 18 21 24 21 17 17 15 14 14 18 21 20 15 18 11 15 14 17 11 10 16 11 15 16 29 22 22 26 21 25 28 27 28 31 28 32 32 27 29 25 20 31 27 23 26 31 27 29 27 30 29 24 21 26 30 23 29 25 25 28 22 23 22 22 21 18 16 18 25 27 12 16 17 15 13 12 12 10 12 12 12 21 20 19 16
24 27 24 21 22 24 21 20 15 11 14 17 21 22 17 19 18 14 22 12 16 9 11 11 17 16 21 22 12 19 19 24 24 24 28 27 30 29 30 32 31 26 25 25 23 20 24 24 18 31 20 29 29 28 27 21 24 27 27 26 28 25 18 27 10 17 16 15 17 21 25 16 18 17 14 14 14 16 17 14 12 12 12 13 14 16 19 19
26 19 17 18 19 17 21 20 15 13 17 20 23 21 21 19 14 13 15 16 9 12 12 14 17 21 20 26 18 20 19 21 26 26 26 27 25 30 24 28 36 29 28 29 16 23 23 28 14 23 26 23 27 27 31 24 24 22 29 32 27 18 22 21 15 19 7 18 23 14 22 19 21 18 13 15 12 14 14 14 13 13 14 12 11 13 14 14
16 12 17 16 17 15 17 18 17 16 17 21 22 19 22 13 10 14 12 12 15 15 15 21 29 24 22 25 23 22 22 17 22 28 27 26 29 27 28 24 23 28 29 26 21 18 20 16 16 18 24 21 22 27 27 28 26 18 24 23 20 20 18 18 18 13 19 25 23 22 25 21 24 18 14 13 15 14 15 15 15 12 14 12 13 14 15 13
17 13 10 14 13 14 17 18 17 17 21 21 19 14 12 13 13 13 12 12 13 11 18 20 15 16 17 20 20 21 19 22 20 27 19 22 27 22 23 28 25 26 26 24 22 18 20 21 23 22 21 24 21 19 26 28 29 27 21 13 24 22 21 23 21 22 20 20 21 24 20 23 20 15 15 9 11 12 13 13 14 15 17 16 14 13 13 13
15 15 18 15 15 16 17 18 17 20 21 22 18 19 19 19 17 11 12 13 12 16 18 12 15 15 21 20 13 10 16 25 18 25 24 27 27 14 21 18 22 21 23 25 29 15 14 20 20 19 23 24 23 25 27 28 27 26 22 23 20 23 20 21 26 21 23 19 18 17 27 9 13 16 15 10 12 10 11 12 15 18 20 20 15 14 11 13
18 19 16 13 15 15 17 17 18 21 23 20 16 19 14 14 10 8 12 12 13 15 13 14 13 16 16 18 15 19 16 19 18 23 23 19 23 13 18 11 15 24 21 24 25 18 15 17 19 24 19 21 28 31 28 27 28 32 30 27 24 27 14 19 13 25 23 20 20 19 19 16 16 14 12 12 11 12 10 12 15 18 24 25 24 25 21 17
16 15 18 14 17 16 17 17 21 23 23 16 14 13 14 14 11 11 9 9 16 13 19 14 15 16 12 14 22 18 16 20 21 18 22 17 23 20 13 13 16 17 21 22 22 20 17 21 21 17 25 26 23 25 26 25 25 26 28 28 26 23 26 25 25 27 30 31 21 18 11 18 16 13 12 13 9 10 13 12 15 20 24 24 22 21 21 21
18 16 20 17 15 16 18 19 23 20 21 16 14 13 15 11 15 9 11 12 13 16 14 16 15 17 14 18 18 11 19 19 19 20 19 21 24 16 15 12 15 14 22 24 23 20 22 17 24 21 22 25 22 20 17 12 16 22 25 28 27 26 27 27 23 20 23 26 23 20 17 11 13 12 10 11 15 16 19 14 21 24 23 21 20 18 18 20
20 13 17 18 17 17 14 15 12 15 18 13 10 11 10 14 13 11 15 13 16 15 15 14 13 13 15 19 11 16 13 19 16 15 14 17 17 11 11 11 14 17 18 27 23 18 7 23 23 26 23 17 16 14 13 17 17 22 23 21 20 25 24 24 25 17 18 16 22 20 17 15 14 9 11 16 15 16 18 20 19 21 22 21 19 19 17 17
15 17 19 17 17 17 15 19 17 16 13 9 11 11 11 16 11 14 17 11 18 14 15 14 12 15 15 10 15 18 11 13 12 14 16 16 17 19 9 12 14 20 21 17 19 22 24 25 24 22 27 28 24 25 23 21 25 29 25 25 25 22 21 17 16 17 20 17 23 22 11 12 18 11 16 14 16 17 19 20 20 19 20 19 17 15 14 14
15 20 14 18 18 17 17 13 18 8 12 11 13 14 14 14 13 16 14 12 11 13 12 15 15 11 14 13 18 17 15 15 15 13 15 11 20 14 10 13 14 20 15 14 14 17 24 17 25 26 26 26 30 28 24 25 28 26 22 14 18 23 22 24 22 22 25 22 25 28 14 15 14 14 15 14 14 18 18 18 18 19 18 18 16 15 16 17
21 14 17 17 18 17 17 13 12 12 11 11 7 11 12 16 16 12 12 15 11 11 16 15 13 14 17 14 17 18 20 14 15 14 16 19 15 13 11 13 11 12 12 10 16 15 16 16 20 21 21 15 15 15 17 18 21 28 17 18 18 20 20 18 19 18 22 17 17 24 17 23 18 16 14 15 15 15 16 17 19 19 18 18 16 17 18 18
14 12 18 15 17 16 12 15 13 15 10 9 9 9 13 12 8 13 12 17 14 14 12 14 14 11 13 14 13 17 17 15 16 17 15 16 11 11 11 10 13 15 16 13 11 18 21 22 18 15 15 12 14 12 15 16 21 19 19 16 17 17 16 15 20 19 16 17 16 14 15 20 18 14 14 14 13 14 16 16 17 17 17 17 16 16 13 18
15 12 10 13 15 15 18 12 12 11 9 15 12 11 10 12 12 11 13 16 9 12 17 13 19 16 15 15 12 14 14 15 15 10 13 15 12 14 14 13 14 13 14 15 15 19 20 21 17 17 18 12 10 13 14 12 13 14 12 13 13 13 14 12 14 15 12 10 13 12 16 17 14 12 12 14 13 14 16 15 14 13 15 16 17 18 18 18
17 10 11 10 10 15 18 14 8 9 12 9 11 12 11 10 10 9 10 12 17 16 15 7 12 11 12 12 13 15 11 16 10 8 12 12 11 14 17 14 12 18 15 13 19 18 15 16 17 20 14 14 15 13 11 11 12 14 15 15 13 14 16 15 15 15 15 15 16 19 22 19 13 11 12 11 12 13 15 14 14 16 17 17 17 18 18 17
15 12 17 9 7 12 11 11 10 14 13 9 8 10 8 9 9 10 14 10 8 10 12 14 18 12 12 12 13 13 11 12 12 5 12 14 16 12 12 12 12 12 16 17 13 16 17 12 10 17 20 18 14 12 13 13 11 16 20 21 21 13 15 18 15 17 10 14 16 17 17 14 11 10 10 9 11 13 14 16 16 17 18 17 17 17 17 16
12 11 12 17 14 15 13 13 17 16 14 16 13 12 10 9 9 8 8 11 11 11 12 10 12 12 12 11 11 12 12 10 10 9 6 12 12 12 14 10 12 10 12 13 11 12 13 11 11 17 20 15 15 17 17 15 13 18 21 22 22 22 16 17 17 15 16 11 12 12 12 10 10 10 10 11 13 16 17 16 16 17 17 17 17 17 16 16
11 9 12 16 12 9 16 11 11 12 13 13 13 11 11 10 9 10 5 11 9 10 9 10 8 13 6 10 9 11 14 13 11 10 10 10 11 11 15 12 11 6 11 14 10 14 12 15 15 15 20 17 17 15 16 17 15 16 21 19 17 14 16 10 15 16 17 17 9 7 16 16 15 12 12 12 14 16 16 17 15 15 16 17 17 16 16 16
Wind_Speed
9 9 9 8 8 8 7 8 8 8 8 8 9 9 9 10 10 11 11 11 11 12 12 13 13 14 14 14 14 15 14 13 14 10 12 7 9 7 7 4 7 9 6 9 11 12 12 12 12 10 9 7 7 10 6 9 6 6 8 8 9 7 10 1 7 2 6 2 6 3 3 3 6 3 3 4 8 5 3 7 6 7 10 3 10 15 17 17
9 9 9 9 9 9 9 8 8 9 9 9 9 9 10 10 11 11 12 11 12 13 13 13 14 14 14 14 14 14 13 14 14 13 13 9 11 6 5 3 8 11 9 12 13 14 12 13 12 12 10 8 7 8 8 7 8 8 8 8 9 9 6 6 7 5 4 8 2 3 2 2 4 5 5 9 6 9 9 6 7 8 10 8 11 16 16 17
9 9 9 9 8 9 9 9 9 9 9 9 9 10 10 10 11 11 12 12 12 13 14 14 14 15 15 15 14 11 14 15 13 14 8 12 11 8 7 4 11 13 15 13 13 13 11 11 11 11 10 8 7 7 8 6 9 10 9 8 9 10 5 7 2 7 6 5 5 5 3 5 4 5 3 8 7 4 9 8 9 11 10 12 12 14 16 16
9 10 9 9 9 9 9 9 9 10 10 10 10 10 10 11 11 12 12 12 12 13 13 14 15 15 15 15 13 12 12 12 11 6 12 11 9 10 9 8 11 14 16 12 11 12 10 9 10 12 9 10 7 8 8 7 8 7 10 9 5 10 8 3 3 2 5 6 7 5 5 7 4 4 5 5 7 10 9 9 9 13 13 11 13 15 14 15
9 10 10 10 10 9 9 9 9 10 10 10 10 10 10 11 11 12 12 12 13 13 14 14 14 15 16 15 14 11 10 9 7 12 11 9 11 11 10 9 11 14 14 10 11 13 9 10 10 11 10 8 7 8 9 9 9 6 11 12 12 5 8 1 3 6 5 5 8 6 8 7 7 8 9 8 9 5 6 4 8 12 10 16 15 11 14 14
10 10 10 10 10 10 10 10 10 10 10 10 11 11 11 11 11 12 13 13 14 14 13 14 15 15 16 15 13 11 8 1 6 7 6 8 10 12 11 9 12 14 13 9 11 10 10 10 11 10 9 10 8 9 9 11 9 10 9 11 10 6 10 5 3 2 3 7 7 6 6 6 7 7 8 6 9 8 1 4 5 16 11 15 13 15 17 17
9 10 11 11 11 10 10 10 10 11 11 11 11 11 12 12 12 12 12 13 13 14 14 14 14 16 16 17 15 10 11 10 6 8 10 10 12 13 11 10 11 12 12 10 11 10 12 11 12 10 9 9 8 9 8 10 10 11 10 6 10 8 10 8 8 6 7 7 8 8 7 9 7 11 2 6 5 4 1 6 3 20 15 14 14 15 17 17
9 10 11 11 12 11 10 11 11 11 11 11 12 12 12 12 12 12 12 13 13 14 14 14 15 15 15 12 8 9 11 7 10 9 13 14 13 13 12 12 14 12 12 12 11 11 11 12 12 8 9 8 5 10 6 9 11 12 12 9 4 5 7 8 8 8 8 8 8 9 10 9 8 11 7 10 8 2 4 4 4 16 13 14 13 14 15 15
10 10 11 11 12 12 11 11 12 12 12 12 12 12 13 13 13 13 13 13 14 14 14 14 15 15 12 10 9 10 5 9 8 12 14 14 14 14 16 12 15 12 11 10 11 9 9 10 11 9 5 9 3 9 8 8 10 13 12 10 8 8 7 7 8 9 9 7 7 9 11 9 10 9 11 9 10 4 1 6 6 10 14 11 13 13 14 14
11 11 11 12 12 13 12 12 13 13 13 13 13 14 14 14 14 14 13 14 14 15 14 15 14 14 13 8 10 10 7 5 9 10 11 13 15 16 17 11 14 12 10 10 9 8 11 6 11 6 8 10 1 9 9 11 3 3 8 11 12 10 9 8 9 9 8 9 7 10 10 9 9 7 9 13 3 3 7 12 4 8 13 13 12 12 12 12
10 11 11 12 13 13 13 13 13 14 14 13 14 14 15 14 14 14 14 14 15 15 15 14 13 12 10 8 9 6 2 3 5 7 10 12 15 15 13 11 11 10 8 8 8 8 8 6 6 1 4 7 4 9 11 8 10 5 6 6 10 11 11 10 9 9 7 10 11 11 12 11 11 10 12 8 4 5 8 16 10 12 10 11 11 11 11 11
11 11 12 12 13 14 14 14 14 14 14 14 14 14 15 15 15 16 16 16 16 16 15 14 12 8 9 10 9 4 6 3 5 7 9 13 13 14 11 10 9 7 7 7 7 8 5 5 6 8 1 1 8 6 11 10 8 7 7 10 11 13 13 13 12 11 9 9 5 5 9 9 11 14 16 6 6 6 7 9 13 12 12 10 10 10 10 11
11 11 12 12 13 13 14 14 14 14 15 15 15 15 15 15 16 17 16 16 13 14 13 12 11 8 8 10 9 2 2 5 5 7 9 11 10 7 8 9 9 5 4 4 6 7 3 4 7 11 8 7 5 4 7 6 7 7 9 9 10 10 12 14 12 10 8 7 2 2 9 10 15 15 18 7 8 7 7 8 10 9 9 9 10 10 11 11
11 12 12 13 13 14 15 15 15 15 16 16 15 15 15 16 17 17 14 15 14 12 9 10 9 8 8 9 3 4 3 4 6 9 11 10 10 9 7 7 5 6 1 4 1 1 5 6 7 11 5 9 5 7 10 5 6 9 9 9 9 8 11 13 9 8 10 6 8 7 10 8 13 19 18 10 8 10 8 9 10 11 10 10 10 9 10 11
11 12 12 13 13 14 15 15 15 16 17 17 17 16 16 17 17 15 13 12 10 8 10 9 9 6 8 6 7 7 8 1 8 10 10 12 12 10 9 8 8 6 5 4 4 3 3 5 8 9 8 9 8 6 8 9 8 9 8 9 9 11 5 11 9 7 11 11 10 9 10 13 13 17 12 8 10 9 12 7 9 8 10 11 10 11 11 11
11 12 12 12 13 14 15 15 16 16 17 17 17 16 18 16 14 13 10 9 4 10 8 8 8 10 9 9 5 9 7 10 12 11 10 11 12 10 10 9 7 7 6 6 2 2 4 6 10 8 8 9 10 8 8 8 9 9 10 7 10 9 6 8 12 8 8 2 8 11 9 9 13 7 11 10 11 10 10 11 10 10 8 9 11 11 11 11
11 11 12 13 13 14 15 15 15 16 17 17 18 17 16 14 10 9 6 7 6 8 7 4 4 6 6 6 5 9 8 10 7 13 12 11 10 9 12 9 9 9 8 5 5 4 7 9 7 8 10 7 8 10 9 9 9 9 9 9 7 8 6 5 13 8 7 7 8 12 11 12 13 5 11 10 11 13 13 15 10 11 9 12 11 12 11 11
11 11 12 13 14 13 14 16 16 16 17 16 16 19 16 10 10 8 7 8 6 7 8 6 6 6 12 8 8 11 10 8 9 11 12 11 11 9 10 10 9 9 9 8 7 9 9 8 9 8 8 9 10 10 11 9 10 8 8 9 8 9 6 7 2 11 6 9 10 6 11 12 16 2 5 7 11 12 14 10 16 12 11 12 8 10 11 10
11 11 12 12 13 14 15 16 16 16 16 15 22 20 16 9 6 8 7 6 7 5 7 8 7 8 6 14 2 9 9 9 7 9 12 13 12 10 10 9 9 11 10 9 9 12 9 8 8 9 10 11 12 12 11 12 6 8 12 11 11 9 10 11 7 10 6 6 8 11 9 11 13 15 5 7 11 12 12 11 8 14 15 13 13 11 9 9
12 12 12 12 13 14 15 15 15 17 14 14 11 6 5 5 5 5 9 10 13 12 11 3 12 5 3 7 9 6 10 8 9 9 10 11 12 13 13 10 11 11 10 9 11 11 9 10 10 11 11 12 14 14 13 14 5 7 8 5 7 7 10 3 3 2 2 7 9 9 10 12 12 14 15 10 10 13 13 10 9 6 13 16 14 10 9 7
13 12 13 13 13 14 16 16 14 14 12 13 13 8 5 6 7 2 2 10 16 15 13 10 10 9 5 2 7 9 9 11 10 10 10 11 13 13 12 12 12 11 11 10 9 8 9 10 11 13 14 12 12 12 12 10 2 9 9 8 9 10 9 11 10 5 4 5 6 9 12 13 14 13 12 9 9 13 14 15 12 12 12 12 12 12 10 9
12 13 13 13 14 15 16 15 15 14 16 12 9 8 7 6 6 4 6 7 9 15 15 12 9 11 5 7 2 3 5 9 12 11 10 13 14 14 14 13 14 12 11 11 8 8 9 11 11 12 12 12 7 7 7 6 7 8 9 9 10 9 10 6 5 4 5 5 7 9 11 11 13 13 13 15 11 10 14 15 13 16 16 9 13 13 14 10
12 13 14 14 15 16 16 17 15 14 10 7 8 10 5 4 3 4 6 9 14 14 13 13 12 11 10 8 8 7 9 10 11 13 14 13 15 16 13 13 13 12 12 13 10 9 9 10 14 12 12 7 6 4 6 7 8 9 10 10 10 9 13 9 6 6 6 6 7 9 9 9 11 12 13 15 13 12 15 17 17 15 15 19 20 12 8 9
12 13 14 14 15 16 18 15 17 13 9 11 9 8 5 3 4 6 8 7 7 5 9 7 10 9 12 10 11 13 13 10 10 15 14 14 13 13 12 15 14 13 11 14 14 11 9 5 11 14 6 8 9 9 9 7 9 11 12 11 11 12 12 8 3 7 5 9 9 10 10 10 10 12 12 14 15 13 12 15 17 17 15 15 15 12 19 15
13 13 14 14 15 18 16 18 9 6 4 8 10 4 1 3 4 6 7 6 8 6 7 4 5 8 4 5 7 12 13 12 14 10 15 15 15 12 12 10 11 12 12 14 13 13 13 3 3 6 9 9 10 10 11 10 10 10 12 13 13 12 15 5 6 10 9 10 12 12 10 11 12 16 16 13 14 15 14 16 17 18 18 16 16 14 16 17
12 12 13 14 15 17 19 9 3 2 5 6 5 4 1 3 3 5 6 5 6 9 9 9 8 8 4 10 8 11 10 14 14 13 14 14 13 12 8 10 9 12 15 12 12 9 11 9 11 8 9 10 12 11 11 12 10 10 9 13 15 13 10 11 13 10 9 10 9 16 11 7 9 14 16 15 15 17 15 15 16 16 16 16 15 14 12 17
12 12 13 13 14 16 9 1 8 7 8 5 3 1 2 3 3 5 5 5 7 10 8 9 9 5 5 9 11 10 10 11 12 14 15 15 16 11 12 10 11 11 8 9 6 10 11 5 7 9 11 11 10 11 11 11 11 10 9 7 6 9 11 12 12 11 10 12 1 1 7 10 11 8 4 7 11 14 14 15 16 16 16 16 16 16 16 16
12 12 12 12 13 11 7 10 10 7 3 5 1 0 3 3 2 3 5 4 4 9 8 10 3 5 6 9 10 13 8 8 13 14 13 14 16 12 12 11 11 12 10 7 11 6 12 10 8 10 11 10 10 10 11 14 11 9 5 2 8 9 10 11 11 11 11 11 11 11 13 11 11 10 8 10 13 13 13 14 14 15 16 15 16 16 17 15
13 12 12 13 14 17 12 8 8 9 5 2 2 4 2 3 6 5 3 5 6 4 4 7 3 8 5 8 11 13 4 9 7 14 15 13 16 9 12 14 10 12 11 11 11 7 8 11 11 10 9 10 9 9 7 9 9 13 4 4 7 8 9 10 10 11 10 10 12 11 8 11 10 9 10 10 11 10 11 14 12 10 14 14 15 18 17 13
13 12 12 12 13 11 9 10 10 10 6 2 4 4 5 5 5 6 4 5 7 6 8 6 9 10 9 10 10 12 11 8 2 11 15 13 16 15 10 9 13 12 12 12 14 11 2 5 3 9 11 10 9 10 8 9 12 4 4 6 10 11 10 9 10 10 9 11 12 14 16 12 11 8 8 7 9 8 7 1 5 6 7 6 7 11 11 17
13 13 11 10 7 6 7 8 5 5 6 4 5 6 5 5 6 5 6 3 6 8 5 8 9 6 11 11 10 13 12 10 10 10 12 12 15 14 10 8 8 11 11 12 12 18 8 8 7 8 10 9 11 12 14 11 11 9 8 9 8 10 9 9 8 8 8 9 11 14 17 13 12 8 2 8 10 7 4 6 6 10 9 8 7 11 13 2
13 14 13 9 9 9 9 2 6 1 0 2 6 6 7 6 7 7 4 6 10 9 8 9 7 7 7 5 9 15 11 11 10 12 12 13 13 14 14 10 11 11 14 12 12 13 11 10 8 10 10 15 10 11 8 9 10 10 9 10 11 7 5 7 8 9 9 9 10 11 12 11 10 11 3 5 5 4 6 4 4 7 9 10 13 12 14 7
12 12 16 13 12 10 13 13 8 4 5 6 6 7 7 5 7 9 4 6 2 1 6 3 4 6 6 6 8 11 12 11 12 12 14 15 13 15 17 16 13 12 9 11 11 11 11 11 12 11 11 11 11 11 9 10 11 11 11 10 11 9 8 7 8 6 9 11 11 4 3 9 6 1 13 7 10 6 5 7 7 7 7 14 11 11 10 4
13 16 12 8 9 10 9 8 6 7 6 6 7 7 7 6 5 3 6 4 6 2 2 6 3 7 8 9 11 11 11 11 13 11 14 12 14 13 14 19 16 15 11 8 11 11 9 11 13 13 10 14 14 13 11 9 11 12 11 12 10 9 7 7 7 7 8 7 7 7 6 5 12 2 7 9 8 1 3 4 3 3 7 2 10 7 8 3
20 18 13 10 10 11 11 9 6 5 5 6 8 8 6 6 7 4 8 3 5 1 3 4 8 7 10 11 2 7 8 8 13 13 13 12 13 11 13 14 19 14 12 10 9 5 12 9 8 17 11 16 16 16 14 11 11 11 11 10 11 9 6 10 1 5 6 4 6 8 7 4 2 5 4 6 5 7 7 4 5 5 2 5 6 8 10 8
18 7 7 6 7 8 10 8 7 6 6 7 8 7 7 7 4 3 3 6 1 3 3 5 8 9 8 10 8 11 11 9 14 12 11 13 12 13 14 12 15 17 11 9 5 8 8 10 6 12 16 13 15 14 14 12 8 8 11 13 11 9 10 7 6 10 4 6 7 4 7 5 8 6 4 6 5 7 6 5 6 3 1 4 1 3 5 5
6 3 6 7 7 6 8 9 6 7 6 7 7 7 8 3 1 5 4 4 7 5 6 8 10 9 9 9 9 11 9 7 10 11 10 12 11 14 14 13 13 16 17 10 7 6 7 5 8 9 14 10 10 14 15 15 11 5 9 8 9 9 8 5 5 3 6 9 7 9 12 7 9 4 2 3 7 5 7 8 6 6 5 6 6 5 4 3
7 4 2 5 5 5 7 8 8 6 7 8 7 11 2 4 4 4 4 4 4 3 7 8 4 5 6 8 8 10 10 9 8 12 8 10 7 12 13 11 14 14 15 14 8 6 7 7 9 11 10 12 11 10 14 16 17 12 7 2 9 7 9 8 4 8 8 7 6 10 10 6 5 4 3 1 3 5 5 6 5 6 9 8 7 5 3 2
5 4 5 5 6 7 7 8 7 8 8 8 6 7 6 7 8 3 4 5 4 7 6 4 5 5 9 6 5 3 7 9 8 10 8 9 10 3 9 7 11 13 13 15 11 4 4 7 6 9 12 11 11 9 10 12 14 16 12 9 7 9 6 7 7 8 7 7 7 6 12 1 3 5 5 3 4 3 5 4 6 8 8 11 6 4 2 4
6 5 5 6 6 6 8 8 7 8 8 7 6 6 2 5 2 1 3 4 3 5 3 5 5 5 5 8 6 6 7 9 6 8 10 7 8 1 8 4 5 10 12 14 12 8 4 4 6 9 10 10 10 10 12 11 12 13 12 10 8 8 4 6 1 6 7 6 7 4 6 5 5 4 3 4 4 6 4 4 4 9 12 13 13 12 10 9
6 4 5 6 7 7 7 6 8 9 9 5 6 3 5 4 3 3 1 0 6 5 7 5 5 5 4 4 6 9 5 8 8 7 9 8 10 5 4 2 7 8 11 12 11 7 4 7 8 5 9 10 9 11 15 14 13 11 11 11 11 10 10 10 7 9 9 6 5 6 0 5 5 4 5 5 1 4 6 5 6 10 12 13 12 12 12 11
5 5 7 8 8 8 7 7 7 7 6 5 3 4 2 6 5 2 3 4 5 5 5 6 6 7 5 7 8 2 6 7 7 8 7 2 13 5 5 2 5 7 7 7 9 9 7 5 9 8 5 9 11 11 9 5 7 11 11 12 12 11 9 10 8 3 9 7 12 5 4 2 3 2 3 4 7 8 11 8 11 11 12 12 11 10 10 10
6 1 8 9 8 8 5 5 4 4 6 3 1 3 2 5 5 3 5 5 6 5 5 5 5 5 7 8 4 6 5 6 7 6 6 3 9 3 5 2 5 8 7 6 10 6 4 5 8 11 10 9 6 3 4 8 8 10 9 9 8 9 11 7 5 6 6 4 7 5 5 3 2 1 5 8 6 7 9 11 9 10 10 11 12 11 10 8
4 4 5 7 8 7 5 5 5 6 4 1 4 3 3 6 3 5 7 3 6 5 5 5 5 7 6 1 5 8 3 4 4 5 5 5 3 11 3 5 5 6 9 5 5 8 6 8 9 7 9 7 7 11 8 9 10 10 9 10 13 10 12 6 6 2 7 6 5 5 3 3 7 5 7 7 7 9 10 11 11 10 10 10 10 8 8 8
4 7 5 6 7 6 6 4 7 2 5 4 5 6 6 5 5 7 6 3 2 4 4 4 6 3 5 5 8 8 7 6 5 6 5 4 8 8 3 6 7 10 5 0 6 3 6 6 9 9 9 10 12 11 7 7 11 9 11 5 3 8 12 11 7 9 8 8 11 10 1 6 5 7 8 8 8 10 10 10 10 10 11 9 9 8 8 8
6 3 4 6 5 6 6 5 4 4 2 3 2 4 4 6 6 4 4 6 4 3 5 6 4 5 8 6 7 8 10 6 5 4 5 2 3 4 3 4 3 4 7 6 9 5 2 4 5 7 7 4 6 6 3 5 6 11 7 5 1 9 11 8 6 5 6 3 3 10 2 9 8 8 7 9 8 8 9 10 10 10 10 10 9 8 7 8
4 3 5 4 5 6 4 5 4 5 2 2 2 3 6 5 2 4 5 6 6 5 4 6 5 3 5 6 5 7 8 7 7 7 7 3 0 3 4 2 5 6 9 4 5 3 2 6 7 6 8 4 7 3 5 8 4 8 3 6 5 8 9 8 8 5 5 5 3 5 6 8 8 7 7 8 7 8 8 8 9 9 9 9 8 8 9 9
3 2 1 2 3 4 7 4 4 3 3 7 1 2 3 5 5 4 4 7 1 4 7 4 9 7 6 7 4 4 6 7 7 3 5 6 5 7 3 4 5 5 6 5 6 7 7 6 7 6 10 2 3 6 5 5 6 2 2 2 2 2 2 2 5 5 4 3 1 4 5 8 7 6 6 8 7 7 8 8 8 8 8 9 10 11 10 10
5 2 1 2 3 5 7 5 0 3 5 3 3 4 4 3 4 3 3 5 7 7 7 3 4 3 4 4 5 5 4 6 4 1 4 4 5 5 4 6 3 8 5 5 8 6 2 1 4 6 4 2 4 3 4 3 4 6 4 6 4 5 8 6 7 8 8 7 7 10 8 10 6 5 6 5 5 5 7 7 7 8 9 10 10 10 10 10
4 2 6 2 1 3 3 3 2 4 3 1 2 4 1 3 2 3 5 3 3 3 4 5 9 5 4 4 5 4 3 2 4 1 3 4 7 5 2 2 2 3 4 5 1 7 2 2 4 6 5 7 4 3 1 1 1 6 9 12 12 6 6 8 7 10 4 7 8 9 8 6 5 5 5 4 4 6 7 9 9 10 10 10 10 10 10 9
4 3 3 4 4 4 3 4 6 6 5 6 4 4 4 3 2 2 2 4 4 4 5 4 5 5 4 3 2 4 3 2 2 2 2 4 4 4 5 1 3 3 2 1 3 3 4 2 1 1 4 6 4 6 6 6 6 10 12 14 13 13 8 9 7 8 8 4 5 3 3 2 3 5 5 5 7 9 10 9 9 9 9 10 10 9 9 8
3 2 4 5 2 2 5 3 3 2 4 4 4 5 4 4 2 3 1 4 2 3 3 4 2 4 4 4 1 4 5 5 3 3 1 2 1 3 3 2 2 1 3 4 2 3 1 4 2 2 4 6 5 5 6 7 5 2 9 10 9 8 8 3 8 9 9 9 2 0 6 7 7 5 6 6 8 9 9 9 8 9 9 10 10 9 8 8
Wind_Direction
332 328 330 332 330 325 327 325 323 321 320 318 317 315 312 310 310 305 306 304 304 303 303 307 308 305 303 304 307 308 305 288 291 267 233 248 96 120 81 95 157 132 211 202 195 177 188 194 200 185 208 194 207 230 176 214 244 220 228 237 236 252 230 323 195 102 19 78 69 1 37 340 277 20 51 229 203 249 132 220 149 90 102 106 124 140 141 144
331 328 329 334 330 330 324 327 324 319 321 319 318 316 315 313 313 312 307 310 309 307 310 309 306 305 305 308 309 312 303 287 279 262 245 105 125 149 135 78 169 162 197 208 187 188 185 188 195 183 205 209 177 220 169 203 224 222 225 235 246 217 49 330 24 9 300 26 324 336 294 334 325 273 55 279 192 191 200 196 182 146 129 116 122 133 141 151
332 328 329 329 329 324 327 324 322 321 317 322 318 315 313 312 308 308 307 307 307 308 306 306 306 304 307 308 310 309 289 290 266 248 179 126 129 170 163 161 179 175 197 192 190 193 198 182 186 196 201 217 178 197 188 191 205 227 249 228 233 276 73 13 308 20 291 356 291 303 322 292 322 257 25 266 294 218 212 188 184 164 133 129 140 147 146 157
333 329 327 328 324 323 320 320 320 319 322 321 317 313 312 310 307 306 307 305 306 305 307 305 304 308 305 306 314 307 289 283 266 161 109 121 155 165 177 172 187 195 212 230 191 207 209 193 189 211 200 239 170 232 190 190 218 190 237 245 240 38 317 123 336 29 329 294 316 284 321 265 272 315 279 304 260 225 211 200 203 165 151 146 147 151 158 159
334 330 326 320 323 320 320 319 319 320 320 317 316 312 312 310 309 307 308 305 304 307 306 306 306 306 306 307 306 288 290 276 106 103 108 147 171 173 169 186 190 199 210 232 208 217 214 211 192 214 232 222 197 210 230 207 223 258 235 245 281 350 262 127 270 46 291 314 271 284 257 292 345 255 250 262 264 267 169 219 214 123 151 149 148 167 151 168
333 326 322 319 318 321 321 320 324 320 317 316 315 316 310 311 310 310 309 309 306 305 305 306 306 306 307 307 299 276 265 309 107 108 117 140 158 161 168 183 193 211 208 231 216 206 210 210 200 207 214 242 188 223 197 236 184 243 233 257 265 273 280 56 244 243 317 282 288 283 285 313 273 286 267 267 266 354 59 200 234 123 169 138 150 159 164 179
326 325 321 319 317 318 321 318 318 319 319 317 316 313 312 309 309 308 307 305 305 303 304 304 305 307 311 299 268 250 243 280 148 110 128 145 140 151 160 173 185 217 217 212 203 193 207 200 207 202 219 234 214 225 222 215 212 243 260 228 230 233 248 272 280 284 268 265 270 285 310 268 273 258 310 271 247 251 56 173 243 106 148 150 161 170 172 176
330 324 322 320 317 317 320 320 318 318 317 317 312 314 311 309 308 308 309 303 302 300 300 302 302 306 319 308 282 224 233 238 100 102 117 127 147 149 161 169 181 202 213 204 193 200 198 207 205 206 236 233 181 214 209 227 219 230 241 257 265 258 254 259 261 260 261 270 268 265 264 265 258 267 310 260 264 152 177 156 197 123 147 148 174 170 172 175
328 323 323 320 318 316 319 320 318 316 318 316 315 312 311 310 307 308 304 302 299 299 297 298 299 303 300 279 279 287 220 70 84 112 137 149 149 158 167 164 192 200 202 199 200 203 202 201 219 225 225 223 178 231 207 234 219 224 247 253 256 250 254 258 258 252 256 262 257 259 253 256 255 266 259 253 228 119 113 200 117 138 149 165 178 173 173 176
324 323 322 321 318 317 317 319 318 318 318 318 316 313 311 309 308 304 303 298 296 294 294 293 297 299 290 264 269 258 93 121 97 123 150 149 153 161 181 170 187 198 196 196 190 212 213 176 229 199 276 280 280 230 227 218 3 13 238 241 253 255 252 241 257 263 263 256 261 258 258 253 251 240 236 217 107 144 199 106 172 194 148 163 190 169 167 172
324 321 321 319 318 316 315 318 316 317 316 317 316 314 311 309 307 305 300 297 293 288 288 289 289 295 274 267 271 269 86 200 115 128 150 158 158 171 187 173 190 193 205 179 212 221 212 290 224 263 249 259 189 236 232 226 263 236 271 283 261 260 260 258 247 254 252 245 232 244 249 243 243 241 255 144 142 175 223 141 172 214 140 169 172 159 166 173
322 319 318 317 317 316 316 314 317 316 315 316 316 313 311 308 308 303 299 294 286 281 277 278 279 273 273 266 250 290 159 118 169 137 158 165 173 179 179 181 195 198 201 174 214 204 234 226 239 229 219 175 227 240 219 237 236 253 246 253 245 241 246 229 232 229 223 248 240 258 266 248 231 229 234 195 164 201 219 173 176 176 161 161 165 171 175 182
320 319 317 318 316 316 314 315 314 317 316 315 316 313 309 307 306 304 298 290 278 268 261 260 259 251 274 262 238 150 223 137 153 158 156 179 168 182 167 180 204 217 230 235 193 200 232 246 248 236 251 263 266 211 23 218 217 251 245 256 259 243 239 222 211 227 228 247 220 215 245 224 216 223 229 161 177 194 203 181 175 165 159 161 169 176 185 181
321 316 317 317 317 315 315 314 316 316 316 315 312 312 308 308 306 302 294 282 277 263 262 257 262 253 251 266 80 125 151 160 155 179 176 174 172 161 183 172 208 215 144 283 352 173 213 223 250 252 272 247 231 101 229 209 235 237 227 226 252 248 240 183 189 181 234 187 189 219 259 250 210 206 214 161 200 204 208 187 176 170 167 168 176 184 185 177
319 317 314 317 316 315 314 314 315 316 316 314 313 310 311 304 304 299 296 281 239 245 232 250 237 248 224 237 108 85 29 233 191 193 186 179 185 167 186 171 194 209 191 229 191 224 217 214 230 230 226 233 279 259 221 232 201 230 234 212 224 242 127 138 167 174 241 135 213 211 242 253 238 188 153 180 193 206 213 193 177 174 172 168 182 190 187 186
319 317 315 315 316 314 312 313 314 316 314 314 309 309 303 301 295 296 288 315 165 206 214 220 214 240 295 261 119 118 196 202 209 202 190 201 192 190 172 178 174 189 192 191 299 186 219 204 220 215 221 189 238 237 232 220 210 211 235 244 218 205 205 158 175 194 246 27 181 217 246 225 275 154 149 180 215 201 218 151 199 184 175 191 192 192 191 185
320 318 316 315 317 314 312 311 313 314 314 311 310 296 297 302 285 273 266 217 171 203 212 245 191 199 253 73 145 190 176 202 187 186 194 209 201 210 162 175 185 177 195 170 213 209 184 217 209 240 251 236 211 232 238 220 217 203 209 244 256 205 209 238 123 199 173 228 220 196 244 261 261 173 143 173 208 216 233 175 178 169 186 210 200 197 190 187
319 318 319 317 313 315 312 311 313 315 314 310 304 295 291 286 278 278 240 230 208 206 224 262 263 243 238 235 213 215 166 147 177 171 187 191 212 212 178 185 178 180 185 187 189 217 172 211 199 228 197 226 217 219 231 218 218 219 200 222 225 231 270 282 187 132 214 176 258 222 230 246 252 252 174 198 212 217 224 209 178 172 194 206 200 207 188 183
320 318 317 316 315 313 312 310 313 316 315 312 288 270 272 255 248 240 250 187 197 177 214 183 192 204 10 174 115 103 155 133 131 164 171 184 197 207 185 197 181 181 192 208 165 213 166 221 199 227 215 206 216 221 221 237 285 259 207 211 234 224 200 226 207 138 228 217 217 232 242 230 241 263 227 190 200 213 228 238 203 183 189 206 205 191 188 186
320 318 318 318 317 313 312 311 311 313 321 308 305 247 216 223 188 204 208 218 228 244 312 125 207 306 154 149 185 134 99 163 166 200 158 182 183 189 194 193 188 205 203 214 152 211 166 215 202 211 220 209 218 227 237 253 314 302 312 286 253 257 256 119 323 74 159 255 250 259 247 257 257 244 240 203 200 209 225 222 214 198 227 207 209 165 175 186
320 320 320 319 317 315 310 311 310 310 314 301 288 272 266 345 295 138 182 229 225 242 261 258 223 239 271 43 145 159 180 176 232 168 179 163 192 182 185 194 190 205 210 212 166 177 198 221 221 219 226 228 218 222 245 281 261 265 257 247 243 231 251 222 198 174 225 252 254 234 249 249 246 250 262 228 212 211 218 220 216 220 238 233 206 161 180 171
322 321 321 320 318 314 312 308 313 311 305 283 266 261 295 29 356 349 300 285 223 219 232 243 247 248 240 232 103 310 216 203 196 180 150 183 178 201 164 204 191 211 191 212 171 171 211 223 227 226 224 231 258 235 218 232 249 250 254 250 253 246 245 227 101 179 250 232 257 258 258 249 243 246 245 257 222 227 220 226 215 215 218 251 264 166 164 182
324 321 321 321 319 314 311 309 308 310 296 256 238 242 302 11 337 330 297 282 275 254 241 229 221 228 223 203 207 208 225 219 188 177 163 202 174 220 167 204 197 220 191 204 199 194 216 222 232 226 221 209 204 229 211 226 250 252 235 242 245 250 241 242 210 224 218 238 269 262 257 251 250 244 241 245 235 217 223 218 224 225 217 209 219 172 158 160
322 323 321 324 320 315 310 310 303 283 237 244 266 275 4 296 321 318 287 264 297 210 205 202 229 211 211 214 189 206 222 214 233 180 168 195 197 204 212 201 211 217 209 196 217 224 227 241 198 213 179 184 204 200 217 224 229 223 250 252 246 244 256 255 227 192 217 228 247 271 266 260 252 246 236 234 237 223 219 225 218 222 226 230 232 204 152 183
322 323 322 323 319 315 311 316 285 219 217 232 246 252 321 295 317 329 301 266 226 224 132 150 222 203 130 62 136 207 207 237 223 216 167 197 199 188 218 198 230 212 222 190 218 240 249 219 16 169 167 197 209 211 214 229 238 233 224 242 256 261 282 246 251 265 250 251 217 223 249 248 231 234 238 227 217 222 222 228 222 219 221 223 229 222 165 173
321 321 324 321 319 317 311 291 161 317 244 264 43 100 257 332 345 315 277 267 237 149 169 175 192 136 154 186 173 214 212 224 210 223 171 199 215 214 188 220 206 216 214 208 211 238 244 167 182 193 204 214 220 230 211 211 243 245 225 218 231 257 259 259 253 252 251 252 263 199 244 258 244 234 217 218 228 217 212 222 230 223 217 222 227 224 182 168
322 321 322 325 316 324 299 54 354 284 259 182 124 206 324 322 2 265 262 216 248 149 174 112 195 106 243 155 184 182 207 206 185 209 187 184 216 199 238 208 182 252 231 211 212 214 239 174 194 205 219 224 218 220 215 210 229 237 248 212 241 242 245 244 249 249 256 268 121 212 225 266 266 253 240 224 230 236 205 214 229 230 222 224 227 225 222 171
319 319 319 320 315 306 297 311 301 265 352 54 323 92 286 353 298 250 254 240 204 152 151 166 39 136 234 152 196 206 37 87 167 189 201 170 222 182 231 225 202 208 217 226 224 179 199 208 203 206 213 217 220 220 214 210 229 242 219 223 237 247 247 245 238 238 246 256 253 211 222 250 258 267 235 212 230 231 230 225 217 223 236 223 230 234 234 162
315 316 317 314 310 287 275 263 286 274 25 322 10 280 341 309 262 260 256 254 101 170 26 145 155 195 173 173 197 227 186 199 272 160 184 184 209 224 202 242 238 217 205 222 231 168 174 224 196 218 205 216 226 209 213 181 224 242 226 234 265 260 258 248 240 245 236 242 248 249 224 254 254 251 238 217 232 223 232 236 232 227 225 230 225 225 228 212
312 314 314 319 303 256 218 226 245 267 304 310 295 309 284 253 232 224 190 256 134 176 190 94 201 172 172 182 189 196 222 178 257 133 181 195 189 227 257 237 232 230 210 199 246 255 115 145 329 211 215 231 219 228 229 188 228 318 332 221 225 234 236 232 249 252 252 236 238 250 249 237 254 254 264 256 219 218 255 74 21 359 348 302 305 304 251 229
307 305 306 309 282 328 325 254 223 224 231 277 303 286 262 229 237 236 205 70 199 96 172 162 161 165 187 200 191 182 208 192 161 181 173 186 192 204 216 216 250 235 222 205 215 239 155 181 196 218 240 228 233 227 213 219 220 221 225 231 237 226 224 230 227 230 244 249 245 239 249 232 248 232 255 59 29 53 339 75 331 343 329 312 308 270 269 160
307 302 296 287 278 296 262 65 40 312 56 321 297 254 218 219 215 234 215 110 257 140 217 166 153 196 204 208 269 164 191 195 173 183 187 189 186 190 203 222 180 215 213 205 213 219 221 204 208 206 206 237 203 242 194 201 212 222 222 231 235 222 218 227 219 217 224 245 246 254 239 227 223 257 161 184 118 55 30 37 20 329 309 307 281 263 261 195
295 294 292 275 265 247 250 267 291 312 295 281 271 234 220 228 219 221 212 165 136 23 130 293 152 202 233 210 210 171 186 207 166 195 198 186 203 194 204 222 190 223 221 200 220 201 218 210 193 204 192 207 226 212 194 197 207 214 218 220 227 222 215 235 232 231 240 228 248 244 288 255 281 160 48 51 58 24 18 43 37 323 284 254 244 257 253 225
300 290 282 261 245 237 244 251 252 264 272 258 237 214 242 242 230 50 299 188 84 134 100 213 224 230 241 226 196 179 179 210 173 192 194 186 204 196 201 215 216 204 240 198 222 214 213 201 200 201 203 176 215 225 213 211 198 211 219 224 227 235 220 223 241 246 240 264 213 207 221 234 241 82 59 80 87 168 80 66 68 213 223 185 263 255 245 247
296 288 265 253 237 241 235 234 240 240 253 236 218 222 201 225 248 192 214 155 124 215 212 129 237 226 206 245 56 191 245 183 190 194 192 200 196 210 199 202 211 222 207 231 202 240 232 230 201 197 221 176 207 214 243 230 215 202 217 232 235 228 233 261 294 275 307 281 227 197 237 242 348 90 95 119 112 87 93 78 80 32 301 165 220 164 183 173
293 254 201 219 216 215 210 210 215 214 233 224 222 208 216 220 217 212 46 6 32 296 311 222 242 225 216 203 175 224 185 277 180 211 198 209 197 210 201 202 204 204 217 222 187 225 212 227 212 176 218 199 200 209 221 244 239 186 207 219 225 229 234 237 245 253 259 261 264 270 220 188 141 162 140 89 73 61 63 90 108 115 313 354 320 174 163 131
289 262 220 193 202 186 178 191 188 205 230 236 226 212 232 204 21 8 62 335 13 315 261 258 185 219 207 207 188 196 186 213 200 210 200 203 213 211 203 204 208 198 221 226 206 228 253 239 202 190 197 209 220 206 221 218 245 262 232 216 229 235 268 257 266 196 223 246 242 240 248 182 210 191 186 123 88 98 87 53 62 89 55 31 350 10 343 50
299 244 227 138 109 147 172 176 186 206 226 230 230 258 14 269 134 305 32 303 243 207 280 262 80 272 229 232 191 197 168 217 178 210 224 196 239 189 218 212 190 218 208 215 252 184 235 238 196 200 225 195 212 223 215 215 216 236 221 259 251 184 211 208 228 236 236 230 247 233 245 273 19 94 326 13 78 85 100 114 66 60 80 65 4 347 340 45
259 239 158 102 136 151 158 165 200 199 213 222 228 227 233 265 54 295 16 339 286 316 271 259 305 189 287 235 224 239 189 210 199 218 221 183 221 137 253 227 190 202 213 213 214 217 210 247 214 191 229 174 186 204 217 199 202 229 255 256 232 275 252 225 211 241 243 236 239 248 245 95 323 62 114 82 62 67 98 111 96 84 92 93 93 309 32 23
227 204 143 133 125 150 141 179 200 209 223 222 210 236 66 236 187 110 274 280 263 246 257 310 207 278 218 260 247 223 223 246 202 229 237 176 209 224 275 233 252 197 222 214 227 181 221 230 256 170 216 163 204 192 216 203 197 197 223 236 220 235 264 267 293 273 254 259 249 255 248 120 90 11 98 125 80 89 58 73 83 67 64 64 56 40 50 50
210 255 127 160 152 136 167 198 212 203 215 215 293 351 148 240 154 194 250 192 285 276 307 294 309 240 269 277 228 233 242 236 222 213 224 202 185 182 171 254 227 222 203 211 223 191 225 206 234 190 193 204 224 191 219 215 204 213 213 222 231 226 223 223 218 209 243 274 259 241 258 87 33 14 39 55 89 56 56 50 63 65 61 58 50 45 33 32
239 197 133 158 151 172 195 198 207 214 227 212 204 216 108 42 265 276 204 182 244 274 188 277 271 283 292 252 289 288 278 259 240 221 199 236 7 327 128 293 243 224 205 209 218 190 231 230 222 233 197 233 228 201 208 240 258 239 220 222 220 229 229 231 253 244 255 254 277 245 151 108 60 17 22 70 71 63 52 60 78 64 61 57 56 45 38 34
217 131 94 160 174 201 211 229 220 210 228 77 24 224 108 200 271 124 249 190 228 215 266 239 255 263 241 264 276 260 268 268 266 260 256 164 126 98 284 225 299 245 221 216 216 201 166 236 222 233 225 221 121 143 186 223 235 235 236 264 234 230 248 265 258 258 278 290 284 264 242 113 134 79 68 72 68 66 63 44 57 74 68 60 50 40 31 28
188 119 161 173 185 213 246 227 187 206 177 67 264 239 117 299 216 204 227 162 252 177 228 236 250 243 285 272 279 264 297 281 242 247 238 192 85 288 259 234 212 260 232 25 296 165 202 204 248 220 219 260 256 200 198 207 220 230 237 227 243 248 245 213 143 30 257 260 239 273 262 155 127 130 94 87 82 73 58 54 43 49 60 63 60 55 45 39
162 157 166 163 188 226 227 268 290 212 149 201 210 225 185 213 206 304 325 246 203 262 267 248 267 3 265 260 262 267 267 260 264 252 302 299 124 193 108 257 183 240 48 117 321 163 213 212 219 226 222 221 213 202 201 199 206 220 225 247 322 273 258 258 234 216 246 233 242 248 184 79 112 118 98 98 89 75 63 59 60 53 51 54 53 50 43 42
189 151 155 161 206 207 254 288 289 297 160 207 234 244 250 230 144 216 248 242 269 304 264 298 293 255 260 268 264 250 245 221 240 244 204 251 241 118 100 137 14 9 7 350 302 276 270 297 260 290 291 299 333 2 0 252 297 236 176 169 280 288 275 279 289 262 249 1 314 17 36 134 144 98 74 59 51 63 66 57 51 51 54 56 53 50 52 48
249 224 160 173 167 213 242 212 198 241 228 215 221 206 219 249 246 169 173 257 181 261 265 245 268 263 272 271 279 276 268 248 217 239 274 299 47 61 148 81 92 30 352 297 253 197 273 238 219 248 255 149 222 52 324 309 344 343 239 195 183 238 265 242 238 249 29 271 246 48 114 151 104 66 60 51 45 55 55 51 54 51 52 51 48 50 44 46
240 116 248 59 257 161 196 185 197 140 63 227 99 238 218 206 208 206 162 248 106 211 259 179 236 241 247 241 249 263 271 264 241 248 296 267 275 131 183 80 63 34 299 234 210 243 248 237 209 197 244 223 116 82 33 338 90 284 267 60 186 53 230 43 38 45 267 285 149 152 209 137 98 73 55 50 30 41 55 54 54 55 59 58 52 45 41 39
281 123 143 129 251 69 27 39 352 141 172 259 162 221 231 217 199 197 240 188 217 185 219 192 240 261 279 274 252 240 236 254 211 268 311 327 297 13 271 138 87 23 22 2 25 1 280 313 349 242 245 37 76 75 97 40 305 89 36 30 58 72 51 42 42 31 43 75 113 133 135 100 76 74 55 47 39 44 52 58 57 57 55 57 55 48 44 41
195 221 156 185 317 117 147 160 178 215 170 135 227 166 209 203 198 203 206 224 222 213 222 263 220 188 303 284 225 217 77 327 14 206 31 318 281 238 18 31 307 49 20 28 22 29 347 170 142 258 231 224 219 204 180 24 319 89 45 27 14 4 57 41 35 21 62 108 104 121 113 98 72 67 77 63 72 66 59 53 50 49 52 54 57 51 43 41
319 340 318 200 178 108 151 180 192 203 150 182 214 156 217 215 169 185 239 204 191 224 251 229 275 313 270 260 89 108 71 30 298 337 166 322 332 42 297 83 240 241 309 22 43 15 320 317 347 67 266 224 196 200 197 160 211 80 47 26 18 23 23 29 37 26 22 17 130 143 170 132 114 95 88 78 65 57 51 48 45 42 48 55 57 53 43 40
264 262 271 277 215 166 227 96 308 233 196 82 26 149 186 195 171 151 138 272 163 188 217 259 275 285 260 279 173 52 10 331 333 321 0 211 67 340 26 45 340 348 196 170 169 269 305 288 266 260 258 271 142 187 189 186 178 150 28 6 4 18 359 79 68 41 28 360 9 79 60 70 117 118 104 76 64 56 48 35 36 48 48 53 56 53 50 43